Location: Newark
(26.8229°N, 81.7649°W)
Time: 12:56:25
(UTC+00:00)

N. Korean satellite - Pass Details

Date: 21 January 2020
Orbit: 456 x 505 km, 97.2° (Epoch: 24 February)

Event Time Altitude Azimuth Distance (km) Brightness Sun altitude
Rises 10:39:29 0° 23° (NNE) 2,529 10.3 -21.5°
Reaches altitude 10° 10:41:40 10° 33° (NNE) 1,657 9.5 -21.0°
Maximum altitude 10:44:55 33° 98° (E) 837 8.4 -20.3°
Drops below altitude 10° 10:48:12 10° 164° (SSE) 1,674 9.6 -19.6°
Sets 10:50:25 0° 174° (S) 2,560 10.5 -19.1°
